QPF
0.00 0.00 0.00 0.00 0.00 0.00 0.00 0.00 0.00 0.00 0.00 0.00 0.00 0.00 0.00 0.00 0.00 0.00 0.00 0.00 0.00 0.00 0.00 0.00 0.00 0.00 0.00 0.00 0.00 0.00 0.00 0.00 0.00 0.00 0.00 0.00 0.00 0.00 0.00 0.01 0.07 0.07 0.04
0.00 0.00 0.00 0.00 0.00 0.00 0.00 0.00 0.00 0.00 0.00 0.00 0.00 0.00 0.00 0.00 0.00 0.00 0.00 0.00 0.00 0.00 0.00 0.01 0.00 0.00 0.00 0.00 0.00 0.00 0.00 0.00 0.00 0.00 0.00 0.00 0.00 0.00 0.01 0.03 0.08 0.05 0.02
0.00 0.00 0.00 0.00 0.00 0.00 0.00 0.00 0.00 0.00 0.00 0.00 0.00 0.00 0.00 0.00 0.00 0.00 0.00 0.00 0.00 0.00 0.01 0.01 0.00 0.00 0.00 0.00 0.00 0.00 0.00 0.00 0.00 0.00 0.03 0.02 0.00 0.00 0.01 0.04 0.06 0.03 0.01
0.00 0.00 0.00 0.00 0.00 0.00 0.00 0.00 0.00 0.00 0.00 0.00 0.00 0.00 0.00 0.00 0.00 0.00 0.00 0.00 0.00 0.01 0.01 0.01 0.00 0.00 0.00 0.00 0.00 0.00 0.00 0.00 0.00 0.01 0.10 0.05 0.00 0.00 0.00 0.01 0.02 0.01 0.01
0.00 0.00 0.00 0.00 0.00 0.00 0.00 0.00 0.00 0.00 0.00 0.00 0.00 0.00 0.00 0.00 0.00 0.00 0.00 0.00 0.01 0.01 0.02 0.01 0.01 0.00 0.00 0.00 0.00 0.00 0.00 0.00 0.00 0.02 0.04 0.03 0.03 0.01 0.00 0.00 0.01 0.01 0.01
0.00 0.00 0.00 0.00 0.00 0.00 0.00 0.00 0.00 0.00 0.00 0.00 0.00 0.00 0.00 0.00 0.00 0.00 0.01 0.01 0.01 0.01 0.01 0.01 0.01 0.00 0.00 0.00 0.00 0.00 0.00 0.00 0.00 0.02 0.01 0.02 0.05 0.01 0.00 0.00 0.01 0.01 0.01
0.00 0.00 0.00 0.00 0.00 0.00 0.00 0.00 0.00 0.00 0.00 0.00 0.00 0.00 0.00 0.00 0.00 0.01 0.01 0.01 0.01 0.01 0.01 0.01 0.00 0.00 0.00 0.00 0.00 0.00 0.00 0.00 0.01 0.02 0.01 0.03 0.06 0.01 0.00 0.00 0.00 0.00 0.00
0.00 0.00 0.00 0.00 0.00 0.00 0.00 0.00 0.00 0.00 0.00 0.00 0.00 0.00 0.00 0.00 0.00 0.01 0.01 0.01 0.01 0.01 0.00 0.00 0.00 0.00 0.00 0.00 0.00 0.00 0.00 0.00 0.00 0.01 0.01 0.04 0.03 0.00 0.01 0.01 0.01 0.00 0.00
0.00 0.00 0.00 0.00 0.00 0.00 0.00 0.00 0.00 0.00 0.00 0.00 0.00 0.00 0.00 0.00 0.00 0.00 0.00 0.00 0.01 0.01 0.01 0.00 0.00 0.00 0.00 0.00 0.00 0.00 0.00 0.00 0.00 0.00 0.01 0.03 0.01 0.00 0.02 0.04 0.03 0.01 0.00
0.00 0.00 0.00 0.00 0.00 0.00 0.00 0.00 0.00 0.00 0.00 0.00 0.00 0.00 0.00 0.00 0.00 0.00 0.00 0.00 0.00 0.00 0.01 0.00 0.00 0.00 0.00 0.00 0.00 0.00 0.00 0.00 0.00 0.00 0.01 0.02 0.01 0.01 0.02 0.04 0.06 0.05 0.02
0.00 0.00 0.00 0.00 0.00 0.00 0.00 0.00 0.00 0.00 0.00 0.00 0.00 0.00 0.00 0.00 0.00 0.00 0.00 0.00 0.00 0.00 0.00 0.01 0.01 0.01 0.01 0.01 0.00 0.01 0.01 0.00 0.00 0.00 0.00 0.01 0.02 0.02 0.02 0.05 0.07 0.08 0.07
0.00 0.00 0.00 0.00 0.00 0.00 0.00 0.02 0.03 0.02 0.03 0.03 0.03 0.03 0.03 0.02 0.01 0.01 0.01 0.02 0.02 0.01 0.01 0.01 0.01 0.02 0.02 0.03 0.04 0.05 0.02 0.01 0.01 0.00 0.00 0.01 0.02 0.02 0.02 0.03 0.04 0.07 0.10
0.00 0.00 0.00 0.00 0.01 0.01 0.02 0.04 0.05 0.05 0.09 0.11 0.12 0.14 0.13 0.11 0.06 0.03 0.03 0.05 0.04 0.03 0.02 0.03 0.03 0.02 0.03 0.05 0.10 0.11 0.04 0.03 0.02 0.01 0.01 0.04 0.03 0.02 0.02 0.02 0.03 0.04 0.06
0.01 0.00 0.00 0.00 0.01 0.02 0.05 0.05 0.05 0.05 0.07 0.09 0.13 0.16 0.19 0.19 0.13 0.09 0.06 0.06 0.09 0.09 0.09 0.07 0.08 0.06 0.08 0.08 0.11 0.11 0.07 0.04 0.02 0.02 0.05 0.06 0.05 0.05 0.03 0.02 0.03 0.04 0.05
0.02 0.02 0.01 0.01 0.03 0.05 0.07 0.07 0.04 0.04 0.04 0.04 0.09 0.14 0.20 0.22 0.21 0.21 0.16 0.14 0.10 0.09 0.13 0.13 0.09 0.12 0.14 0.12 0.12 0.12 0.10 0.06 0.04 0.04 0.09 0.13 0.08 0.06 0.05 0.04 0.03 0.04 0.05
0.03 0.03 0.02 0.02 0.04 0.06 0.09 0.09 0.09 0.07 0.06 0.05 0.09 0.11 0.19 0.24 0.26 0.30 0.29 0.25 0.17 0.11 0.12 0.19 0.19 0.22 0.20 0.17 0.10 0.11 0.11 0.12 0.12 0.09 0.10 0.19 0.14 0.07 0.05 0.05 0.05 0.05 0.06
0.03 0.03 0.03 0.03 0.03 0.04 0.05 0.06 0.07 0.05 0.04 0.04 0.06 0.08 0.11 0.15 0.20 0.24 0.25 0.26 0.23 0.20 0.20 0.25 0.29 0.33 0.24 0.20 0.17 0.17 0.17 0.18 0.19 0.22 0.20 0.19 0.16 0.09 0.05 0.04 0.04 0.05 0.06
0.02 0.03 0.03 0.03 0.02 0.02 0.03 0.04 0.04 0.04 0.03 0.03 0.04 0.05 0.06 0.09 0.14 0.19 0.22 0.25 0.30 0.32 0.33 0.35 0.37 0.41 0.36 0.29 0.26 0.21 0.25 0.25 0.21 0.24 0.20 0.16 0.14 0.11 0.11 0.06 0.04 0.05 0.05
0.02 0.03 0.03 0.02 0.02 0.01 0.01 0.02 0.03 0.03 0.04 0.05 0.05 0.05 0.06 0.09 0.12 0.16 0.20 0.25 0.33 0.34 0.35 0.33 0.38 0.41 0.37 0.32 0.27 0.23 0.20 0.20 0.19 0.20 0.21 0.14 0.12 0.11 0.10 0.09 0.06 0.03 0.03
0.02 0.02 0.02 0.02 0.02 0.01 0.01 0.01 0.01 0.02 0.03 0.04 0.04 0.04 0.05 0.06 0.08 0.12 0.17 0.23 0.28 0.31 0.33 0.35 0.39 0.41 0.37 0.32 0.25 0.22 0.23 0.18 0.18 0.17 0.14 0.12 0.11 0.07 0.05 0.07 0.11 0.05 0.04
0.02 0.02 0.01 0.01 0.01 0.01 0.01 0.01 0.01 0.01 0.01 0.02 0.03 0.03 0.03 0.03 0.04 0.09 0.17 0.29 0.35 0.35 0.40 0.45 0.45 0.41 0.34 0.31 0.29 0.23 0.19 0.17 0.16 0.14 0.12 0.10 0.08 0.07 0.05 0.07 0.10 0.09 0.08
0.01 0.01 0.01 0.01 0.01 0.01 0.01 0.00 0.00 0.00 0.00 0.01 0.01 0.02 0.02 0.02 0.03 0.07 0.14 0.19 0.23 0.27 0.30 0.35 0.39 0.38 0.34 0.29 0.26 0.22 0.17 0.16 0.15 0.10 0.11 0.09 0.07 0.06 0.06 0.06 0.07 0.09 0.08
0.00 0.00 0.00 0.00 0.00 0.00 0.00 0.00 0.00 0.00 0.00 0.00 0.01 0.01 0.01 0.01 0.02 0.05 0.12 0.17 0.20 0.24 0.26 0.27 0.26 0.27 0.28 0.26 0.22 0.18 0.14 0.11 0.11 0.09 0.06 0.04 0.03 0.04 0.05 0.04 0.04 0.04 0.03
0.00 0.00 0.00 0.00 0.00 0.00 0.00 0.00 0.00 0.00 0.00 0.00 0.00 0.00 0.00 0.00 0.01 0.02 0.06 0.10 0.16 0.22 0.28 0.27 0.26 0.25 0.23 0.21 0.19 0.15 0.10 0.09 0.09 0.09 0.07 0.03 0.02 0.02 0.02 0.03 0.02 0.04 0.02
0.00 0.00 0.00 0.00 0.00 0.00 0.00 0.00 0.00 0.00 0.00 0.00 0.00 0.00 0.00 0.00 0.00 0.01 0.02 0.04 0.08 0.13 0.17 0.21 0.27 0.28 0.26 0.21 0.19 0.18 0.14 0.09 0.06 0.08 0.10 0.07 0.03 0.01 0.01 0.02 0.02 0.01 0.01
0.00 0.00 0.00 0.00 0.00 0.00 0.00 0.00 0.00 0.01 0.01 0.00 0.00 0.00 0.00 0.00 0.00 0.00 0.00 0.01 0.02 0.05 0.08 0.12 0.17 0.22 0.26 0.25 0.20 0.20 0.20 0.16 0.07 0.05 0.05 0.06 0.05 0.01 0.00 0.01 0.01 0.01 0.01
MSLP
1007.06 1007.39 1007.85 1008.42 1009.02 1009.57 1010.01 1010.32 1010.50 1010.61 1010.72 1010.88 1011.14 1011.50 1011.95 1012.41 1012.85 1013.22 1013.48 1013.66 1013.77 1013.87 1013.99 1014.14 1014.34 1014.57 1014.79 1014.97 1015.10 1015.17 1015.19 1015.19 1015.20 1015.24 1015.32 1015.44 1015.59 1015.76 1015.93 1016.09 1016.25 1016.41 1016.58
1007.15 1007.52 1008.02 1008.61 1009.21 1009.74 1010.15 1010.43 1010.58 1010.66 1010.76 1010.93 1011.22 1011.61 1012.09 1012.59 1013.06 1013.43 1013.70 1013.86 1013.96 1014.04 1014.13 1014.27 1014.45 1014.66 1014.87 1015.04 1015.15 1015.22 1015.24 1015.25 1015.28 1015.34 1015.45 1015.60 1015.78 1015.98 1016.17 1016.35 1016.52 1016.69 1016.87
1007.13 1007.54 1008.08 1008.70 1009.32 1009.87 1010.28 1010.55 1010.71 1010.80 1010.91 1011.09 1011.39 1011.79 1012.27 1012.75 1013.19 1013.54 1013.76 1013.90 1013.98 1014.04 1014.13 1014.28 1014.46 1014.67 1014.88 1015.04 1015.16 1015.22 1015.25 1015.27 1015.32 1015.41 1015.56 1015.74 1015.96 1016.18 1016.39 1016.59 1016.77 1016.96 1017.15
1007.03 1007.48 1008.07 1008.73 1009.39 1009.97 1010.41 1010.71 1010.89 1011.01 1011.14 1011.35 1011.65 1012.04 1012.48 1012.91 1013.29 1013.56 1013.73 1013.82 1013.88 1013.94 1014.05 1014.21 1014.43 1014.66 1014.88 1015.05 1015.17 1015.23 1015.25 1015.28 1015.35 1015.46 1015.64 1015.86 1016.11 1016.36 1016.60 1016.81 1017.01 1017.21 1017.41
1006.87 1007.38 1008.02 1008.74 1009.46 1010.08 1010.56 1010.90 1011.12 1011.27 1011.43 1011.65 1011.94 1012.30 1012.69 1013.06 1013.35 1013.55 1013.65 1013.70 1013.74 1013.81 1013.94 1014.15 1014.41 1014.69 1014.93 1015.12 1015.23 1015.28 1015.29 1015.31 1015.38 1015.50 1015.70 1015.94 1016.22 1016.50 1016.76 1017.00 1017.22 1017.43 1017.64
1006.69 1007.26 1007.98 1008.76 1009.53 1010.20 1010.72 1011.09 1011.34 1011.52 1011.70 1011.92 1012.21 1012.54 1012.88 1013.17 1013.39 1013.51 1013.56 1013.57 1013.60 1013.70 1013.87 1014.14 1014.45 1014.77 1015.05 1015.24 1015.35 1015.37 1015.36 1015.36 1015.40 1015.52 1015.71 1015.97 1016.26 1016.57 1016.85 1017.11 1017.35 1017.58 1017.81
1006.52 1007.16 1007.95 1008.80 1009.62 1010.32 1010.87 1011.25 1011.50 1011.69 1011.88 1012.10 1012.38 1012.69 1012.98 1013.23 1013.39 1013.46 1013.47 1013.47 1013.50 1013.62 1013.85 1014.17 1014.54 1014.90 1015.20 1015.40 1015.49 1015.48 1015.43 1015.38 1015.38 1015.47 1015.64 1015.90 1016.21 1016.53 1016.84 1017.13 1017.39 1017.65 1017.90
1006.37 1007.09 1007.95 1008.86 1009.71 1010.43 1010.96 1011.33 1011.56 1011.73 1011.91 1012.12 1012.39 1012.69 1012.97 1013.19 1013.33 1013.38 1013.37 1013.36 1013.41 1013.57 1013.83 1014.20 1014.61 1015.01 1015.32 1015.52 1015.58 1015.54 1015.43 1015.32 1015.27 1015.31 1015.46 1015.71 1016.02 1016.35 1016.69 1017.01 1017.31 1017.60 1017.88
1006.27 1007.07 1007.99 1008.94 1009.80 1010.49 1010.99 1011.30 1011.49 1011.62 1011.76 1011.97 1012.23 1012.53 1012.82 1013.04 1013.18 1013.23 1013.23 1013.23 1013.29 1013.46 1013.75 1014.14 1014.58 1014.99 1015.31 1015.50 1015.54 1015.46 1015.31 1015.14 1015.04 1015.04 1015.16 1015.38 1015.69 1016.05 1016.41 1016.77 1017.10 1017.42 1017.74
1006.27 1007.12 1008.08 1009.04 1009.87 1010.52 1010.94 1011.18 1011.29 1011.36 1011.47 1011.65 1011.92 1012.23 1012.54 1012.79 1012.95 1013.02 1013.03 1013.03 1013.09 1013.26 1013.54 1013.92 1014.35 1014.77 1015.08 1015.27 1015.29 1015.19 1015.01 1014.82 1014.68 1014.64 1014.73 1014.95 1015.26 1015.63 1016.03 1016.42 1016.79 1017.15 1017.50
1006.41 1007.27 1008.24 1009.17 1009.95 1010.51 1010.85 1010.99 1011.02 1011.02 1011.08 1011.25 1011.52 1011.85 1012.19 1012.47 1012.66 1012.75 1012.76 1012.75 1012.78 1012.91 1013.15 1013.49 1013.89 1014.28 1014.60 1014.78 1014.82 1014.73 1014.55 1014.36 1014.21 1014.17 1014.25 1014.46 1014.78 1015.16 1015.58 1016.01 1016.42 1016.81 1017.19
1006.74 1007.57 1008.49 1009.35 1010.05 1010.51 1010.75 1010.79 1010.73 1010.67 1010.69 1010.83 1011.10 1011.45 1011.82 1012.14 1012.35 1012.45 1012.44 1012.40 1012.37 1012.43 1012.59 1012.86 1013.20 1013.56 1013.86 1014.06 1014.14 1014.09 1013.96 1013.81 1013.69 1013.67 1013.76 1013.98 1014.30 1014.70 1015.14 1015.59 1016.03 1016.44 1016.84
1007.29 1008.05 1008.87 1009.62 1010.20 1010.55 1010.68 1010.63 1010.50 1010.38 1010.36 1010.48 1010.75 1011.11 1011.50 1011.83 1012.06 1012.15 1012.11 1012.01 1011.90 1011.86 1011.91 1012.08 1012.34 1012.65 1012.95 1013.18 1013.32 1013.35 1013.31 1013.24 1013.18 1013.20 1013.32 1013.55 1013.88 1014.28 1014.73 1015.19 1015.64 1016.07 1016.47
1008.06 1008.69 1009.37 1009.98 1010.43 1010.67 1010.69 1010.57 1010.37 1010.21 1010.16 1010.27 1010.53 1010.89 1011.28 1011.61 1011.83 1011.90 1011.82 1011.65 1011.44 1011.28 1011.20 1011.26 1011.42 1011.68 1011.97 1012.24 1012.45 1012.59 1012.67 1012.70 1012.74 1012.81 1012.97 1013.21 1013.53 1013.93 1014.36 1014.82 1015.26 1015.69 1016.09
1008.99 1009.46 1009.97 1010.42 1010.73 1010.86 1010.81 1010.62 1010.39 1010.20 1010.13 1010.22 1010.45 1010.79 1011.16 1011.48 1011.68 1011.72 1011.59 1011.35 1011.05 1010.77 1010.57 1010.50 1010.57 1010.76 1011.04 1011.35 1011.64 1011.89 1012.08 1012.23 1012.36 1012.51 1012.69 1012.93 1013.24 1013.60 1014.01 1014.44 1014.87 1015.28 1015.67
1009.98 1010.27 1010.60 1010.90 1011.08 1011.12 1011.01 1010.80 1010.56 1010.36 1010.26 1010.32 1010.52 1010.82 1011.15 1011.44 1011.61 1011.62 1011.45 1011.15 1010.78 1010.40 1010.09 1009.91 1009.88 1010.01 1010.27 1010.60 1010.95 1011.29 1011.59 1011.84 1012.05 1012.24 1012.44 1012.66 1012.93 1013.25 1013.62 1014.01 1014.41 1014.81 1015.19
1010.90 1011.02 1011.19 1011.35 1011.43 1011.41 1011.28 1011.07 1010.83 1010.63 1010.51 1010.53 1010.67 1010.91 1011.18 1011.42 1011.56 1011.56 1011.38 1011.06 1010.64 1010.20 1009.82 1009.55 1009.44 1009.50 1009.71 1010.04 1010.42 1010.82 1011.18 1011.50 1011.75 1011.96 1012.14 1012.33 1012.55 1012.80 1013.11 1013.46 1013.83 1014.22 1014.60
1011.62 1011.61 1011.65 1011.71 1011.73 1011.69 1011.57 1011.39 1011.17 1010.97 1010.82 1010.78 1010.85 1011.00 1011.20 1011.39 1011.51 1011.50 1011.33 1011.03 1010.62 1010.17 1009.74 1009.42 1009.23 1009.23 1009.38 1009.67 1010.05 1010.45 1010.83 1011.16 1011.42 1011.60 1011.75 1011.87 1012.02 1012.20 1012.45 1012.75 1013.10 1013.49 1013.89
1012.08 1011.98 1011.94 1011.95 1011.95 1011.93 1011.85 1011.71 1011.52 1011.32 1011.14 1011.03 1011.00 1011.06 1011.17 1011.30 1011.39 1011.39 1011.27 1011.02 1010.66 1010.24 1009.83 1009.48 1009.25 1009.17 1009.26 1009.48 1009.80 1010.16 1010.51 1010.80 1011.01 1011.14 1011.21 1011.26 1011.32 1011.44 1011.62 1011.89 1012.23 1012.62 1013.05
1012.23 1012.10 1012.04 1012.04 1012.07 1012.10 1012.08 1012.00 1011.85 1011.65 1011.43 1011.24 1011.10 1011.05 1011.06 1011.12 1011.19 1011.22 1011.15 1010.99 1010.72 1010.37 1010.00 1009.66 1009.40 1009.27 1009.28 1009.42 1009.65 1009.93 1010.19 1010.40 1010.53 1010.58 1010.56 1010.52 1010.50 1010.54 1010.67 1010.90 1011.24 1011.66 1012.13
1012.12 1012.01 1011.97 1012.01 1012.09 1012.19 1012.24 1012.23 1012.12 1011.92 1011.66 1011.39 1011.14 1010.97 1010.88 1010.87 1010.91 1010.96 1010.96 1010.89 1010.73 1010.49 1010.19 1009.89 1009.63 1009.46 1009.40 1009.44 1009.57 1009.73 1009.89 1009.99 1010.02 1009.96 1009.85 1009.72 1009.61 1009.58 1009.67 1009.88 1010.22 1010.66 1011.17
1011.85 1011.79 1011.80 1011.89 1012.04 1012.21 1012.34 1012.39 1012.32 1012.13 1011.83 1011.48 1011.13 1010.85 1010.65 1010.57 1010.57 1010.63 1010.70 1010.72 1010.67 1010.54 1010.33 1010.09 1009.85 1009.66 1009.54 1009.51 1009.53 1009.58 1009.62 1009.61 1009.53 1009.37 1009.16 1008.95 1008.77 1008.68 1008.73 1008.92 1009.26 1009.72 1010.27
1011.52 1011.52 1011.59 1011.74 1011.95 1012.18 1012.38 1012.48 1012.45 1012.26 1011.94 1011.53 1011.10 1010.71 1010.42 1010.26 1010.22 1010.27 1010.38 1010.47 1010.52 1010.48 1010.37 1010.20 1010.01 1009.82 1009.67 1009.57 1009.51 1009.47 1009.40 1009.30 1009.12 1008.88 1008.59 1008.31 1008.07 1007.94 1007.95 1008.12 1008.45 1008.92 1009.47
1011.25 1011.31 1011.42 1011.60 1011.85 1012.12 1012.36 1012.50 1012.49 1012.32 1011.99 1011.55 1011.06 1010.60 1010.23 1009.99 1009.90 1009.93 1010.04 1010.17 1010.28 1010.32 1010.29 1010.19 1010.05 1009.88 1009.73 1009.60 1009.50 1009.39 1009.26 1009.09 1008.84 1008.54 1008.20 1007.87 1007.59 1007.43 1007.40 1007.55 1007.86 1008.31 1008.85
1011.09 1011.18 1011.31 1011.50 1011.75 1012.02 1012.27 1012.43 1012.45 1012.31 1011.99 1011.54 1011.03 1010.52 1010.09 1009.79 1009.63 1009.62 1009.70 1009.83 1009.97 1010.06 1010.08 1010.04 1009.95 1009.83 1009.70 1009.58 1009.47 1009.34 1009.18 1008.97 1008.70 1008.37 1008.01 1007.65 1007.35 1007.16 1007.11 1007.23 1007.50 1007.92 1008.43
1011.07 1011.17 1011.28 1011.43 1011.65 1011.89 1012.12 1012.29 1012.33 1012.21 1011.92 1011.50 1010.99 1010.48 1010.01 1009.66 1009.44 1009.36 1009.39 1009.49 1009.61 1009.71 1009.77 1009.77 1009.73 1009.66 1009.57 1009.48 1009.39 1009.27 1009.13 1008.92 1008.65 1008.33 1007.97 1007.61 1007.31 1007.11 1007.04 1007.13 1007.37 1007.74 1008.20
Thickness
5855 5850 5841 5837 5833 5828 5824 5820 5817 5813 5809 5805 5802 5799 5796 5793 5790 5788 5786 5784 5781 5779 5777 5775 5772 5770 5768 5766 5764 5762 5761 5760 5759 5758 5756 5755 5753 5752 5751 5750 5750 5748 5746
5857 5847 5840 5835 5830 5826 5822 5818 5815 5811 5807 5804 5800 5797 5794 5791 5788 5786 5784 5782 5780 5778 5776 5773 5771 5769 5767 5765 5763 5761 5759 5759 5758 5756 5755 5754 5752 5751 5750 5750 5750 5747 5745
5854 5844 5837 5833 5828 5824 5820 5817 5813 5810 5806 5802 5799 5796 5793 5790 5787 5784 5782 5780 5778 5776 5774 5772 5770 5768 5766 5763 5762 5760 5758 5757 5757 5756 5755 5754 5751 5749 5748 5748 5747 5746 5744
5852 5843 5837 5830 5826 5822 5818 5815 5811 5808 5805 5801 5798 5795 5791 5788 5786 5783 5781 5778 5776 5775 5773 5770 5768 5767 5765 5762 5760 5759 5758 5757 5756 5755 5755 5755 5752 5748 5747 5746 5745 5744 5743
5850 5842 5833 5828 5823 5819 5816 5812 5809 5806 5803 5800 5796 5793 5790 5787 5784 5782 5779 5777 5775 5773 5771 5769 5767 5765 5763 5761 5759 5758 5757 5756 5755 5755 5757 5755 5751 5748 5746 5744 5743 5742 5742
5847 5839 5830 5825 5821 5817 5813 5810 5807 5804 5801 5797 5794 5791 5788 5785 5782 5780 5778 5775 5773 5772 5770 5768 5766 5764 5762 5760 5758 5756 5756 5755 5755 5757 5758 5755 5751 5747 5745 5743 5742 5741 5740
5846 5837 5828 5823 5818 5814 5811 5807 5804 5801 5798 5795 5791 5788 5786 5783 5780 5778 5776 5774 5771 5770 5768 5766 5764 5762 5760 5758 5757 5755 5754 5754 5754 5758 5758 5756 5751 5747 5744 5742 5741 5740 5739
5846 5836 5825 5819 5815 5811 5807 5804 5801 5798 5794 5791 5788 5785 5783 5780 5777 5775 5773 5771 5769 5767 5765 5764 5762 5760 5758 5756 5755 5754 5752 5752 5755 5757 5758 5755 5751 5747 5744 5742 5740 5739 5738
5847 5834 5823 5817 5812 5808 5804 5801 5797 5794 5791 5788 5784 5781 5779 5776 5774 5772 5770 5767 5766 5764 5762 5761 5759 5758 5756 5754 5753 5752 5750 5750 5751 5755 5757 5755 5751 5748 5745 5742 5740 5738 5737
5843 5833 5824 5818 5812 5806 5801 5797 5794 5790 5787 5783 5780 5777 5774 5771 5769 5767 5766 5764 5762 5760 5759 5757 5756 5755 5754 5752 5751 5750 5749 5748 5749 5753 5756 5755 5752 5749 5746 5742 5740 5738 5737
5837 5831 5826 5820 5812 5807 5802 5797 5791 5787 5783 5779 5776 5773 5770 5769 5768 5766 5764 5762 5760 5758 5756 5754 5753 5752 5751 5750 5749 5748 5747 5747 5748 5751 5755 5756 5752 5749 5746 5743 5740 5738 5737
5825 5825 5824 5819 5811 5806 5803 5796 5790 5786 5782 5778 5776 5773 5768 5767 5766 5766 5765 5762 5758 5755 5753 5751 5749 5749 5748 5749 5748 5746 5746 5746 5747 5751 5754 5754 5752 5749 5746 5744 5741 5738 5737
5820 5819 5818 5813 5807 5802 5799 5793 5790 5787 5784 5778 5775 5772 5768 5766 5763 5763 5763 5761 5756 5753 5750 5749 5746 5746 5747 5748 5750 5748 5746 5747 5748 5750 5754 5754 5751 5748 5746 5743 5741 5738 5737
5811 5809 5808 5806 5800 5795 5792 5788 5786 5784 5781 5778 5774 5770 5767 5763 5760 5758 5758 5757 5755 5752 5750 5749 5747 5746 5746 5748 5748 5748 5747 5746 5749 5751 5752 5752 5749 5746 5745 5743 5740 5738 5736
5800 5798 5796 5795 5791 5786 5782 5778 5778 5776 5774 5773 5769 5765 5762 5759 5755 5753 5752 5751 5750 5749 5749 5747 5746 5746 5745 5745 5746 5747 5747 5747 5747 5749 5749 5748 5745 5744 5743 5742 5739 5737 5736
5789 5787 5787 5785 5782 5778 5774 5770 5768 5767 5766 5764 5762 5759 5755 5752 5749 5747 5745 5745 5744 5743 5743 5743 5742 5742 5742 5742 5743 5744 5744 5745 5745 5746 5745 5744 5743 5742 5741 5740 5739 5737 5736
5778 5777 5776 5775 5773 5769 5766 5763 5762 5760 5758 5756 5753 5751 5748 5746 5743 5742 5740 5739 5739 5738 5737 5737 5736 5736 5737 5738 5738 5739 5740 5741 5742 5742 5742 5742 5741 5740 5740 5740 5738 5737 5736
5769 5767 5765 5765 5762 5760 5757 5754 5753 5751 5748 5746 5744 5741 5739 5737 5735 5735 5734 5734 5734 5733 5732 5730 5729 5727 5729 5731 5731 5732 5734 5736 5738 5738 5740 5741 5741 5740 5739 5739 5739 5738 5737
5759 5757 5754 5752 5750 5748 5747 5745 5744 5742 5739 5737 5735 5732 5730 5728 5727 5727 5728 5728 5727 5727 5726 5725 5724 5723 5721 5723 5724 5727 5729 5731 5734 5736 5737 5739 5740 5740 5740 5740 5739 5739 5737
5751 5749 5746 5743 5740 5738 5737 5736 5734 5732 5730 5729 5727 5724 5721 5719 5718 5718 5720 5721 5721 5720 5720 5719 5718 5717 5716 5716 5719 5723 5726 5728 5730 5732 5735 5737 5739 5740 5741 5742 5740 5739 5738
5743 5739 5736 5732 5730 5727 5724 5721 5720 5719 5719 5719 5719 5716 5713 5711 5709 5708 5709 5711 5711 5711 5711 5711 5711 5710 5710 5713 5711 5713 5719 5725 5728 5730 5733 5735 5738 5740 5742 5743 5742 5741 5740
5734 5731 5729 5725 5721 5718 5715 5712 5712 5711 5711 5711 5710 5707 5705 5702 5701 5700 5699 5700 5701 5702 5703 5704 5704 5703 5704 5707 5705 5703 5705 5713 5722 5729 5730 5732 5737 5740 5742 5743 5743 5742 5742
5729 5726 5723 5717 5714 5710 5706 5704 5702 5700 5700 5699 5698 5697 5696 5694 5692 5691 5690 5691 5691 5692 5693 5696 5697 5696 5695 5699 5702 5701 5700 5703 5714 5724 5728 5731 5735 5737 5740 5744 5744 5744 5743
5725 5723 5717 5712 5707 5702 5697 5692 5688 5685 5684 5685 5685 5685 5685 5685 5684 5683 5682 5681 5682 5683 5683 5686 5689 5689 5689 5690 5695 5701 5704 5706 5705 5710 5719 5728 5732 5734 5737 5741 5744 5745 5745
5721 5717 5711 5705 5699 5694 5689 5684 5679 5676 5674 5674 5673 5673 5674 5675 5675 5675 5674 5673 5672 5672 5674 5676 5678 5680 5681 5683 5686 5690 5695 5700 5704 5703 5704 5714 5722 5729 5734 5737 5741 5743 5744
5716 5710 5705 5697 5690 5685 5680 5675 5671 5667 5664 5662 5661 5661 5663 5666 5667 5667 5666 5664 5663 5663 5663 5665 5667 5670 5672 5675 5680 5684 5685 5688 5694 5698 5700 5705 5710 5720 5728 5732 5735 5738 5741